Content
SEND FEEDBACK

Daily
Averages
Monthly
Summary
Senegal

ZIGUINCHOR, SENEGAL


Home > Africa > Senegal
Elevation: 75 feet     Latitude: 12 33N     Longitude: 016 16W

WEATHER
 
SELECT A DAY
Number of Records: 80,313;   Date Range: 10/19/97 - 12/20/14
 
SHARE

PRINT THIS DATA

[ ← Previous Day ]
WEATHER ALMANAC - JANUARY 31, 2013
[ Next Day → ]
[ °C ]   °F
Weather ElementAverageHighLow
Temperature80.8 °F96.8 °F (4:00 pm)66.2 °F (7:00 am)
Dewpoint58.1 °F66.2 °F (8:00 pm)46.4 °F (11:00 am)
Humidity48.8 %83 % (7:00 am)19 % (12:00 pm)
Barometer27.63 in29.92 in (8:00 am) (7:00 pm)
Wind Speed4.8 mph11.5 mph (11:00 am)
Weather ElementAverage
Visibility5.6 mi
Wind DirectionENE (66.4 °)

Weather ElementTotal
Precipitation---
Cooling Degree Days16.5 (Base 65)
Growing Degree Days31.5 (Base 50)
Averaged from 25 records on January 31, 2013
WEATHER CONDITIONS BREAKOUT
WIND DIRECTION BREAKOUT
WEATHER BY HOUR - JANUARY 31, 2013
[ °C ]   °F
Local TimeTemperatureDewpointHumidityBarometerVisibilityWind DirectionWind SpeedGust SpeedPrecipitationEventsConditions
12:00 AM71.6 °F59.0 °F64 %29.89 inVariable2.3 mphClear
3:00 AM87.8 °F59.0 °F38 %29.89 inVariable2.3 mphClear
4:00 AM69.8 °F59.0 °F68 %29.89 inVariable2.3 mphClear
5:00 AM68.0 °F59.0 °F73 %Variable2.3 mphClear
6:00 AM67.0 °F59.0 °F70 %29.85 in6.0 miNNW (340°)2.3 mphPartly Cloudy
6:00 AM68.0 °F59.0 °F73 %29.86 inVariable2.3 mphClear
7:00 AM66.2 °F60.8 °F83 %29.89 inVariable2.3 mphClear
8:00 AM66.2 °F60.8 °F83 %29.92 inVariable2.3 mphClear
9:00 AM69.8 °F53.6 °F56 %29.92 in5.0 miNNE (20°)4.6 mphScattered Clouds
10:00 AM77.0 °F48.2 °F36 %29.92 in5.0 miNE (40°)9.2 mphPartly Cloudy
11:00 AM82.4 °F46.4 °F28 %29.92 inENE (60°)11.5 mphClear
12:00 PM87.8 °F51.8 °F29 %29.92 inEast (80°)11.5 mphClear
12:00 PM87.0 °F51.0 °F19 %29.92 in6.0 miEast (80°)11.5 mphScattered Clouds
1:00 PM91.4 °F53.6 °F28 %29.89 inEast (80°)6.9 mphClear
2:00 PM77.0 °F53.6 °F44 %29.89 inNE (40°)6.9 mphClear
3:00 PM95.0 °F55.4 °F26 %29.86 inNE (40°)6.9 mphClear
4:00 PM96.8 °F59.0 °F28 %29.83 inNNW (340°)4.6 mphClear
5:00 PM96.8 °F62.6 °F32 %29.83 inNE (40°)4.6 mphClear
6:00 PM95.0 °F59.0 °F30 %29.83 inVariable2.3 mphClear
6:00 PM94.0 °F60.0 °F22 %29.84 in6.0 miNE (40°)2.3 mphScattered Clouds
7:00 PM89.6 °F62.6 °F40 %29.86 inVariable2.3 mphClear
8:00 PM84.2 °F66.2 °F55 %29.89 inVariable2.3 mphClear
9:00 PM80.6 °F66.2 °F61 %SSW (200°)6.9 mphClear
10:00 PM77.0 °F64.4 °F65 %29.89 inWest (260°)4.6 mphClear
11:00 PM75.2 °F64.4 °F69 %29.92 inVariable2.3 mphClear
Hourly data recorded from GOGG, located miles away from Ziguinchor, Senegal







STORIES FROM OUR PARTNERS